sat.trackr.live / text

‹ back to catalog

NUSAT-48 (HENRIETTA LE*)

NORAD 60498 · 2024-149AG

PAYLOAD ACTIVE UNKNOWN

§ Identity

Operator
Country
ARGN
Launch date
2024-08-16
Launch site
AFWTR
Launch vehicle
Mass (kg)
RCS (m²)

External: N2YO · Heavens-Above · Gunter

§ Orbital elements

Epoch: 2026-05-25T03:15:24.022080Z

Period
94.12 min
Inclination
97.3906°
Eccentricity
0.0003838
Mean motion
15.30011510 rev/d
Perigee alt
473.1 km
Apogee alt
478.4 km
Semi-major
6,853.9 km
B*
2.9739e-4
RAAN
226.7520°
Arg perigee
20.8564°
Mean anomaly
339.2832°
Rev number
9,861

§ Raw data

NUSAT-48 (HENRIETTA LE*)1 60498U 24149AG  26145.13569470  .00008566  00000+0  29739-3 0  99972 60498  97.3906 226.7520 0003838  20.8564 339.2832 15.30011510 98615

JSON: /api/v1/satellites/60498 · /tle

For live sub-satellite position, see the globe view (requires WebGL).

§ Visibility from observer

Set your observer location to see the next 7 days of passes ≥ 10°. The values pass through the URL so the page stays shareable.

No JS? Fill the form by hand. The geolocation button needs JavaScript.